[[{"header":{"parameterUnit":"m.s-1","parameterCategory":1,"la1":30.2991,"la2":30.254,"lo1":-89.0895,"lo2":-89.0444,"dy":0.0017,"dx":0.0017,"nx":28,"ny":28,"refTime":"2025-11-19T09:00:00:Z","depth":0,"parameterNumber":2,"parameterNumberName":"U-component_of_WINDS"},"data":[0,0,0,0,0,0,0,0,0,0,0,0,0,0,0,0,0,0,0,0,0,0,0,0,0,0,0,0,0,0,0,0,0,0,0,0,0,0,0,0,0,0,0,0,0,0,0,0,0,0,0,0,0,0,0,0,0,0,-1.373,-1.373,0,-1.3722,-1.3722,-1.3722,-1.3652,-1.365,-1.3649,-1.3647,-1.3642,-1.3643,-1.3645,0,0,0,0,0,0,0,0,0,0,0,0,0,-1.3686,-1.3687,-1.373,-1.373,-1.3729,-1.3722,-1.3722,-1.3722,-1.3652,-1.365,-1.3648,-1.3646,-1.3641,-1.3643,-1.3645,0,0,0,0,0,0,0,0,0,0,0,0,0,-1.3694,-1.3687,-1.373,-1.3694,-1.369,-1.3722,-1.3722,-1.3722,-1.3653,-1.365,-1.3648,-1.3645,-1.3641,-1.3643,-1.3645,-1.3711,0,0,-1.3652,-1.3653,0,0,0,0,0,0,0,0,-1.3694,-1.3696,-1.3699,-1.3696,-1.3693,-1.3685,-1.3705,-1.3719,-1.3653,-1.3667,-1.3647,-1.3644,-1.3659,-1.3659,-1.3664,-1.3711,-1.3711,-1.3652,-1.3653,-1.3654,-1.3655,0,0,0,0,0,0,0,-1.3693,-1.3696,-1.3727,-1.3699,-1.3695,-1.3679,-1.3677,-1.3707,-1.3678,-1.3666,-1.3661,-1.3661,-1.3656,-1.3662,-1.3663,-1.3711,-1.3652,-1.3654,-1.3655,-1.3656,-1.3812,-1.3815,0,0,0,0,0,0,-1.3697,-1.3696,-1.3727,-1.3726,-1.3687,-1.3682,-1.368,-1.369,-1.3677,-1.3673,-1.3663,-1.3657,-1.3659,-1.366,-1.3663,-1.3739,-1.3654,-1.3657,-1.3658,-1.381,-1.3813,-1.3816,0,0,0,0,0,0,-1.3697,-1.3701,-1.3727,-1.371,-1.3712,-1.3685,-1.3698,-1.3692,-1.3697,-1.3675,-1.367,-1.3674,-1.3657,-1.3659,-1.37,-1.3738,-1.3658,-1.366,-1.3806,-1.3811,-1.3815,-1.3892,0,0,0,0,0,0,-1.3696,-1.3701,-1.3725,-1.3711,-1.3713,-1.3764,-1.37,-1.3693,-1.3701,-1.3693,-1.3684,-1.3679,-1.3655,-1.3697,-1.3702,-1.3739,-1.3661,-1.3803,-1.3808,-1.3813,-1.3886,-1.3899,-1.391,0,0,0,0,0,-1.3694,-1.3748,-1.3727,-1.3731,-1.3743,-1.3766,-1.3768,-1.3738,-1.3704,-1.3728,-1.3715,-1.368,-1.3733,-1.3701,-1.3707,-1.3745,-1.38,-1.3807,-1.3813,-1.3881,-1.3896,-1.3909,0,0,0,0,0,0,-1.3769,-1.3746,-1.3722,-1.3772,-1.3772,-1.3754,-1.3784,-1.3755,-1.3765,-1.3757,-1.3721,-1.3719,-1.3765,-1.3759,-1.3725,-1.3809,-1.376,-1.3768,-1.3811,-1.3825,-1.3836,-1.3837,-1.3663,0,0,0,0,0,-1.3791,-1.3811,-1.379,-1.3837,-1.3838,-1.3812,-1.3821,-1.3798,-1.3796,-1.3795,-1.3784,-1.3785,-1.3801,-1.3813,-1.3827,-1.3886,-1.3882,-1.3915,-1.3926,-1.3936,-1.3943,-1.3973,-1.3987,-1.3837,-1.3837,-1.3837,0,0,-1.3837,-1.3827,-1.3842,-1.3852,-1.3848,-1.3871,-1.3812,-1.3838,-1.3854,-1.38,-1.3836,-1.3829,-1.3826,-1.3876,-1.3897,-1.3873,-1.3984,-1.3944,-1.3952,-1.3953,-1.3981,-1.3995,-1.4008,-1.3841,-1.384,-1.384,0,0,-1.3933,-1.3927,-1.3965,-1.3963,-1.3959,-1.3941,-1.395,-1.3937,-1.393,-1.3966,-1.3925,-1.3945,-1.3974,-1.3974,-1.3978,-1.4074,-1.4042,-1.408,-1.414,-1.417,-1.4182,-1.4192,-1.4226,-1.4238,-1.4087,-1.4087,-1.4087,0,-1.3991,-1.4022,-1.3989,-1.4017,-1.4023,-1.3974,-1.4012,-1.4012,-1.4013,-1.4018,-1.399,-1.4026,-1.4021,-1.407,-1.4093,-1.4098,-1.4108,-1.408,-1.4182,-1.4192,-1.4202,-1.4233,-1.4246,-1.4091,-1.4091,-1.409,-1.409,0,-1.4093,-1.4116,-1.4147,-1.4148,-1.4157,-1.4191,-1.4163,-1.4177,-1.4153,-1.4139,-1.4177,-1.4169,-1.4181,-1.4191,-1.4169,-1.4236,-1.4221,-1.4189,-1.4139,-1.4221,-1.425,-1.4262,-1.4098,-1.4096,-1.4095,-1.4094,0,0,-1.4235,-1.4217,-1.4229,-1.4229,-1.4221,-1.4237,-1.4269,-1.428,-1.4292,-1.4295,-1.432,-1.4346,-1.4316,-1.4321,-1.4298,-1.4324,-1.44,-1.4288,-1.4288,-1.4309,-1.4474,-1.4498,-1.4513,-1.438,-1.4382,-1.4384,-1.4474,0,-1.4326,-1.4378,-1.4349,-1.4405,-1.4425,-1.4379,-1.4407,-1.4405,-1.4393,-1.4409,-1.4395,-1.4414,-1.4373,-1.4375,-1.4399,-1.4386,-1.4433,-1.4379,-1.4403,-1.4405,-1.4404,-1.4528,-1.4553,-1.4639,-1.4486,-1.4487,-1.4489,0,-1.4439,-1.4445,-1.4503,-1.4491,-1.4498,-1.4524,-1.4531,-1.4547,-1.4544,-1.4533,-1.4538,-1.451,-1.454,-1.4492,-1.4534,-1.4498,-1.4507,-1.4502,-1.4504,-1.4505,-1.4451,-1.4531,-1.4666,-1.4679,-1.4507,-1.4505,-1.4504,0,-1.4535,-1.4559,-1.4596,-1.4598,-1.4584,-1.4603,-1.4599,-1.4593,-1.4602,-1.4609,-1.4613,-1.4624,-1.463,-1.464,-1.4615,-1.4582,-1.466,-1.461,-1.4652,-1.4653,-1.467,-1.4669,-1.4807,-1.4677,-1.4677,-1.4676,-1.4676,0,-1.464,-1.4677,-1.4639,-1.4662,-1.4703,-1.467,-1.4711,-1.4702,-1.4698,-1.4719,-1.468,-1.4701,-1.4667,-1.4685,-1.4666,-1.4703,-1.4706,-1.4699,-1.4693,-1.4701,-1.4702,-1.4706,-1.4699,-1.468,-1.4679,-1.4678,-1.4678,0,-1.4754,-1.473,-1.4768,-1.4752,-1.4749,-1.478,-1.4766,-1.4787,-1.4772,-1.4799,-1.4804,-1.4781,-1.4799,-1.4775,-1.4792,-1.4779,-1.483,-1.4816,-1.4831,-1.4826,-1.487,-1.4866,-1.5014,-1.5032,-1.4891,-1.4893,-1.4894,0,-1.4821,-1.4849,-1.4836,-1.4847,-1.4844,-1.4862,-1.487,-1.4839,-1.4849,-1.4848,-1.487,-1.4885,-1.4895,-1.4927,-1.4912,-1.4925,-1.491,-1.4962,-1.4912,-1.492,-1.491,-1.4909,-1.4911,-1.4972,-1.4973,-1.4975,-1.4976,0,-1.4944,-1.4931,-1.4943,-1.4952,-1.4962,-1.4968,-1.497,-1.4982,-1.4949,-1.4963,-1.4981,-1.4989,-1.5005,-1.5021,-1.503,-1.5026,-1.4996,-1.4992,-1.5002,-1.501,-1.5017,-1.5013,-1.4858,-1.4988,-1.4987,-1.4986,-1.4985,-1.4985,-1.5036,-1.5058,-1.5052,-1.5067,-1.5066,-1.5069,-1.5088,-1.5075,-1.509,-1.51,-1.5081,-1.5104,-1.5101,-1.511,-1.5109,-1.5127,-1.5105,-1.512,-1.5124,-1.5128,-1.5134,-1.5015,-1.5129,-1.5128,-1.5128,-1.5128,-1.5127,0,-1.5155,-1.5149,-1.5164,-1.5168,-1.5181,-1.5151,-1.5152,-1.5165,-1.5185,-1.5184,-1.5195,-1.5216,-1.5231,-1.5218,-1.523,-1.5247,-1.5234,-1.5251,-1.5249,-1.5249,-1.5153,-1.5143,-1.5262,-1.5262,-1.5262,-1.5262,-1.5262,-1.5262,-1.5219,-1.5254,-1.5241,-1.5276,-1.5269,-1.5291,-1.5294,-1.5297,-1.5297,-1.5321,-1.5333,-1.5324,-1.5319,-1.533,-1.5343,-1.5339,-1.5345,-1.5367,-1.5358,-1.5269,-1.5256,-1.5243,-1.5233,-1.5369,-1.5369,-1.5452,-1.5453,-1.5453]},{"header":{"parameterUnit":"m.s-1","parameterCategory":1,"la1":30.2991,"la2":30.254,"lo1":-89.0895,"lo2":-89.0444,"dy":0.0017,"dx":0.0017,"nx":28,"ny":28,"refTime":"2025-11-19T09:00:00:Z","depth":0,"parameterNumber":3,"parameterNumberName":"V-component_of_WINDS"},"data":[0,0,0,0,0,0,0,0,0,0,0,0,0,0,0,0,0,0,0,0,0,0,0,0,0,0,0,0,0,0,0,0,0,0,0,0,0,0,0,0,0,0,0,0,0,0,0,0,0,0,0,0,0,0,0,0,0,0,-0.0374,-0.0374,0,-0.0387,-0.0388,-0.0388,-0.0369,-0.0368,-0.0368,-0.0367,-0.038,-0.0381,-0.0382,0,0,0,0,0,0,0,0,0,0,0,0,0,-0.0331,-0.0332,-0.0374,-0.0374,-0.0375,-0.0387,-0.0388,-0.0388,-0.0369,-0.0368,-0.0368,-0.0367,-0.038,-0.0381,-0.0382,0,0,0,0,0,0,0,0,0,0,0,0,0,-0.0348,-0.0333,-0.0374,-0.0367,-0.0366,-0.0387,-0.0388,-0.0388,-0.0369,-0.0368,-0.0367,-0.0366,-0.0379,-0.0381,-0.0382,-0.0411,0,0,-0.0387,-0.0387,0,0,0,0,0,0,0,0,-0.0347,-0.0349,-0.0368,-0.0367,-0.0367,-0.0376,-0.0377,-0.0396,-0.037,-0.0368,-0.0367,-0.0366,-0.0379,-0.0381,-0.0385,-0.0412,-0.0412,-0.0387,-0.0388,-0.0388,-0.0389,0,0,0,0,0,0,0,-0.0346,-0.0349,-0.0379,-0.0368,-0.0367,-0.0362,-0.0364,-0.0381,-0.0379,-0.0368,-0.0367,-0.0369,-0.0379,-0.0384,-0.0386,-0.0412,-0.0387,-0.0388,-0.0389,-0.039,-0.0461,-0.0462,0,0,0,0,0,0,-0.0346,-0.0348,-0.0379,-0.038,-0.0354,-0.0364,-0.0365,-0.0374,-0.0379,-0.0379,-0.037,-0.0368,-0.0382,-0.0384,-0.0386,-0.0419,-0.0388,-0.039,-0.0391,-0.046,-0.0461,-0.0462,0,0,0,0,0,0,-0.0345,-0.0349,-0.0378,-0.0364,-0.0367,-0.0366,-0.0375,-0.0375,-0.038,-0.038,-0.038,-0.0375,-0.0381,-0.0384,-0.0405,-0.0419,-0.039,-0.0392,-0.0459,-0.0461,-0.0462,-0.0486,0,0,0,0,0,0,-0.0344,-0.0349,-0.036,-0.0364,-0.0368,-0.0397,-0.0376,-0.0376,-0.0382,-0.038,-0.0385,-0.0385,-0.0381,-0.0403,-0.0406,-0.0421,-0.0393,-0.0458,-0.046,-0.0461,-0.0484,-0.0488,-0.0491,0,0,0,0,0,-0.0342,-0.0366,-0.0361,-0.0364,-0.0382,-0.0398,-0.04,-0.0395,-0.0384,-0.0395,-0.0394,-0.0385,-0.0417,-0.0405,-0.0409,-0.0424,-0.0457,-0.0459,-0.0461,-0.0482,-0.0487,-0.0491,0,0,0,0,0,0,-0.0364,-0.0367,-0.036,-0.0387,-0.0392,-0.0395,-0.0409,-0.0401,-0.041,-0.0408,-0.0401,-0.0402,-0.0424,-0.0426,-0.0413,-0.0451,-0.0435,-0.0438,-0.0449,-0.0454,-0.0458,-0.0457,-0.0394,0,0,0,0,0,-0.0372,-0.0385,-0.0387,-0.041,-0.0413,-0.041,-0.0417,-0.0413,-0.0418,-0.0421,-0.0422,-0.0428,-0.0439,-0.0447,-0.0457,-0.0484,-0.0484,-0.0496,-0.05,-0.0503,-0.0506,-0.0519,-0.0524,-0.047,-0.047,-0.047,0,0,-0.0389,-0.0392,-0.0401,-0.0414,-0.0418,-0.0431,-0.0413,-0.0428,-0.0437,-0.0423,-0.0442,-0.0444,-0.0449,-0.0473,-0.0483,-0.0475,-0.0521,-0.0506,-0.0509,-0.051,-0.0522,-0.0527,-0.0531,-0.0472,-0.0471,-0.0471,0,0,-0.0425,-0.0429,-0.0448,-0.0452,-0.0458,-0.0456,-0.0461,-0.0464,-0.0464,-0.0484,-0.0473,-0.0484,-0.0504,-0.0508,-0.0513,-0.0549,-0.054,-0.0553,-0.0573,-0.0586,-0.059,-0.0594,-0.0606,-0.061,-0.0555,-0.0555,-0.0556,0,-0.0445,-0.0465,-0.0459,-0.0474,-0.048,-0.0467,-0.0486,-0.049,-0.0499,-0.0503,-0.0494,-0.0517,-0.0521,-0.0544,-0.0553,-0.0557,-0.0562,-0.0552,-0.059,-0.0594,-0.0597,-0.0608,-0.0613,-0.0557,-0.0557,-0.0557,-0.0556,0,-0.0488,-0.0502,-0.0516,-0.0525,-0.0532,-0.0549,-0.0545,-0.0553,-0.0548,-0.0546,-0.0566,-0.0569,-0.0579,-0.0584,-0.0579,-0.0607,-0.0601,-0.0591,-0.0575,-0.0604,-0.0614,-0.0619,-0.0559,-0.0558,-0.0558,-0.0558,0,0,-0.054,-0.0544,-0.0549,-0.0552,-0.0557,-0.0567,-0.0583,-0.0593,-0.06,-0.0606,-0.0619,-0.0635,-0.0625,-0.0631,-0.0626,-0.0637,-0.0664,-0.0625,-0.0625,-0.0632,-0.0694,-0.0701,-0.0706,-0.0659,-0.0659,-0.066,-0.0693,0,-0.0575,-0.0603,-0.0597,-0.0624,-0.0636,-0.0623,-0.0637,-0.0641,-0.064,-0.0649,-0.0648,-0.066,-0.0646,-0.0649,-0.066,-0.0659,-0.0677,-0.0657,-0.067,-0.067,-0.0668,-0.0712,-0.072,-0.075,-0.0697,-0.0698,-0.0698,0,-0.0621,-0.0628,-0.0656,-0.0658,-0.0662,-0.0675,-0.0683,-0.0692,-0.0696,-0.0695,-0.07,-0.0693,-0.0708,-0.0691,-0.0711,-0.0697,-0.0702,-0.0702,-0.0703,-0.0704,-0.0686,-0.0713,-0.076,-0.0764,-0.0705,-0.0704,-0.0704,0,-0.0654,-0.0671,-0.069,-0.0693,-0.0696,-0.0704,-0.0706,-0.0709,-0.0715,-0.0722,-0.0725,-0.0734,-0.0738,-0.0745,-0.0739,-0.0728,-0.076,-0.0743,-0.0758,-0.0758,-0.0765,-0.0765,-0.0813,-0.077,-0.077,-0.0769,-0.0769,0,-0.0694,-0.0712,-0.0705,-0.0716,-0.0734,-0.0727,-0.0746,-0.0746,-0.0748,-0.0759,-0.0749,-0.0759,-0.0752,-0.0761,-0.0757,-0.0773,-0.0776,-0.0774,-0.0773,-0.0775,-0.0775,-0.0778,-0.0775,-0.0771,-0.077,-0.077,-0.077,0,-0.0735,-0.0731,-0.075,-0.0751,-0.0751,-0.0765,-0.0765,-0.0775,-0.0773,-0.0786,-0.0789,-0.0786,-0.0796,-0.0792,-0.0803,-0.08,-0.0821,-0.0817,-0.0819,-0.0818,-0.0833,-0.0832,-0.0885,-0.0891,-0.0844,-0.0844,-0.0845,0,-0.076,-0.0773,-0.0775,-0.0781,-0.0783,-0.0794,-0.0799,-0.0792,-0.0798,-0.0803,-0.0813,-0.0822,-0.0829,-0.0846,-0.0844,-0.0852,-0.0848,-0.0866,-0.0849,-0.085,-0.0847,-0.0846,-0.0847,-0.0869,-0.087,-0.087,-0.0871,0,-0.0806,-0.0803,-0.0811,-0.0819,-0.0826,-0.0831,-0.0836,-0.0842,-0.0835,-0.0842,-0.0852,-0.0858,-0.0869,-0.0878,-0.0884,-0.0886,-0.0877,-0.0876,-0.088,-0.0882,-0.0882,-0.0881,-0.0828,-0.0875,-0.0875,-0.0874,-0.0874,-0.0874,-0.0839,-0.0849,-0.0852,-0.0861,-0.0864,-0.0868,-0.0877,-0.0876,-0.0884,-0.0892,-0.0888,-0.0899,-0.0902,-0.091,-0.0912,-0.0921,-0.0914,-0.0919,-0.0921,-0.0922,-0.0924,-0.0881,-0.0922,-0.0922,-0.0922,-0.0922,-0.0922,0,-0.0883,-0.0884,-0.0892,-0.0899,-0.0906,-0.0897,-0.0901,-0.0908,-0.0918,-0.0921,-0.0928,-0.0939,-0.0948,-0.0946,-0.0954,-0.0961,-0.0957,-0.0963,-0.0962,-0.0962,-0.093,-0.0926,-0.0966,-0.0966,-0.0966,-0.0966,-0.0966,-0.0966,-0.0907,-0.0923,-0.092,-0.0937,-0.0938,-0.0949,-0.0952,-0.0956,-0.0958,-0.0971,-0.0978,-0.0977,-0.0978,-0.0985,-0.0992,-0.0992,-0.0994,-0.1002,-0.1,-0.0969,-0.0965,-0.0961,-0.0956,-0.1003,-0.1003,-0.1031,-0.1031,-0.1032]}]]